Time,TemperatureF,DewpointF,PressureIn,WindDirection,WindDirectionDegrees,WindSpeedMPH,WindSpeedGustMPH,Humidity,HourlyPrecipIn,Conditions,Clouds,dailyrainin,SoftwareType,DateUTC
2013-10-27 00:05:00,38.9,38.4,30.17,North,11,0.0,0.0,98,0.00,,,0.00,Wunderground v.1.15,2013-10-27 07:05:00,
2013-10-27 00:11:00,38.6,38.3,30.16,North,11,0.0,0.0,99,0.00,,,0.00,Wunderground v.1.15,2013-10-27 07:11:00,
2013-10-27 00:17:00,38.1,37.6,30.16,North,11,0.0,0.0,98,0.00,,,0.00,Wunderground v.1.15,2013-10-27 07:17:00,
2013-10-27 00:23:00,37.0,36.5,30.16,North,11,0.0,0.0,98,0.00,,,0.00,Wunderground v.1.15,2013-10-27 07:23:00,
2013-10-27 00:29:00,36.5,35.7,30.16,North,11,0.0,0.0,97,0.00,,,0.00,Wunderground v.1.15,2013-10-27 07:29:00,
2013-10-27 00:35:00,36.2,35.7,30.16,North,11,2.0,2.0,98,0.00,,,0.00,Wunderground v.1.15,2013-10-27 07:35:00,
2013-10-27 00:40:00,34.9,34.1,30.16,North,11,3.0,3.0,97,0.00,,,0.00,Wunderground v.1.15,2013-10-27 07:40:00,
2013-10-27 00:46:00,34.1,33.3,30.16,North,11,2.0,3.0,97,0.00,,,0.00,Wunderground v.1.15,2013-10-27 07:46:00,
2013-10-27 00:52:00,33.9,33.1,30.15,North,11,0.0,1.0,97,0.00,,,0.00,Wunderground v.1.15,2013-10-27 07:52:00,
2013-10-27 00:58:00,33.6,32.8,30.15,North,11,0.0,1.0,97,0.00,,,0.00,Wunderground v.1.15,2013-10-27 07:58:00,
2013-10-27 01:03:00,33.4,32.6,30.15,North,11,0.0,0.0,97,0.00,,,0.00,Wunderground v.1.15,2013-10-27 08:03:00,
2013-10-27 01:09:00,33.1,32.6,30.14,North,11,1.0,2.0,98,0.00,,,0.00,Wunderground v.1.15,2013-10-27 08:09:00,
2013-10-27 01:15:00,33.0,32.5,30.14,North,11,0.0,2.0,98,0.00,,,0.00,Wunderground v.1.15,2013-10-27 08:15:00,
2013-10-27 01:21:00,32.9,32.4,30.14,North,11,0.0,1.0,98,0.00,,,0.00,Wunderground v.1.15,2013-10-27 08:21:00,
2013-10-27 01:26:00,33.0,32.5,30.14,North,11,0.0,2.0,98,0.00,,,0.00,Wunderground v.1.15,2013-10-27 08:26:00,
2013-10-27 01:31:00,33.1,32.6,30.13,North,11,0.0,0.0,98,0.00,,,0.00,Wunderground v.1.15,2013-10-27 08:31:00,
2013-10-27 01:37:00,33.4,32.9,30.13,North,11,0.0,0.0,98,0.00,,,0.00,Wunderground v.1.15,2013-10-27 08:37:00,
2013-10-27 01:43:00,33.5,33.0,30.12,North,11,1.0,1.0,98,0.00,,,0.00,Wunderground v.1.15,2013-10-27 08:43:00,
2013-10-27 01:48:00,33.6,33.1,30.12,North,11,0.0,1.0,98,0.00,,,0.00,Wunderground v.1.15,2013-10-27 08:48:00,
2013-10-27 01:54:00,33.5,33.0,30.12,North,11,3.0,3.0,98,0.00,,,0.00,Wunderground v.1.15,2013-10-27 08:54:00,
2013-10-27 02:00:00,33.6,33.1,30.12,North,11,2.0,2.0,98,0.00,,,0.00,Wunderground v.1.15,2013-10-27 09:00:00,
2013-10-27 02:05:00,33.7,33.2,30.11,ESE,123,3.0,5.0,98,0.00,,,0.00,Wunderground v.1.15,2013-10-27 09:05:00,
2013-10-27 02:10:00,33.7,33.2,30.10,ESE,123,0.0,2.0,98,0.00,,,0.00,Wunderground v.1.15,2013-10-27 09:10:00,
2013-10-27 02:15:00,33.9,33.4,30.10,ESE,123,0.0,5.0,98,0.00,,,0.00,Wunderground v.1.15,2013-10-27 09:15:00,
2013-10-27 02:20:00,34.1,33.6,30.10,ESE,123,1.0,2.0,98,0.00,,,0.00,Wunderground v.1.15,2013-10-27 09:20:00,
2013-10-27 02:25:00,33.9,33.4,30.11,East,93,2.0,5.0,98,0.00,,,0.00,Wunderground v.1.15,2013-10-27 09:25:00,
2013-10-27 02:30:00,33.9,33.4,30.11,East,93,0.0,2.0,98,0.00,,,0.00,Wunderground v.1.15,2013-10-27 09:30:00,
2013-10-27 02:35:00,33.8,33.3,30.11,East,93,1.0,3.0,98,0.00,,,0.00,Wunderground v.1.15,2013-10-27 09:35:00,
2013-10-27 02:40:00,33.7,33.2,30.10,East,93,0.0,1.0,98,0.00,,,0.00,Wunderground v.1.15,2013-10-27 09:40:00,
2013-10-27 02:45:00,33.7,33.2,30.10,East,93,0.0,1.0,98,0.00,,,0.00,Wunderground v.1.15,2013-10-27 09:45:00,
2013-10-27 02:50:00,33.5,33.0,30.09,East,93,0.0,0.0,98,0.00,,,0.00,Wunderground v.1.15,2013-10-27 09:50:00,
2013-10-27 02:55:00,33.5,33.0,30.10,East,93,2.0,5.0,98,0.00,,,0.00,Wunderground v.1.15,2013-10-27 09:55:00,
2013-10-27 03:00:00,33.5,33.0,30.09,East,93,0.0,1.0,98,0.00,,,0.00,Wunderground v.1.15,2013-10-27 10:00:00,
2013-10-27 03:05:00,33.5,33.0,30.08,East,93,1.0,2.0,98,0.00,,,0.00,Wunderground v.1.15,2013-10-27 10:05:00,
2013-10-27 03:10:00,33.4,32.9,30.08,East,93,0.0,0.0,98,0.00,,,0.00,Wunderground v.1.15,2013-10-27 10:10:00,
2013-10-27 03:15:00,33.5,33.0,30.08,East,93,0.0,3.0,98,0.00,,,0.00,Wunderground v.1.15,2013-10-27 10:15:00,
2013-10-27 03:20:00,33.6,33.1,30.07,East,93,2.0,2.0,98,0.00,,,0.00,Wunderground v.1.15,2013-10-27 10:20:00,
2013-10-27 03:25:00,33.5,33.0,30.06,East,93,2.0,5.0,98,0.00,,,0.00,Wunderground v.1.15,2013-10-27 10:25:00,
2013-10-27 03:30:00,33.6,33.1,30.06,East,93,2.0,3.0,98,0.00,,,0.00,Wunderground v.1.15,2013-10-27 10:30:00,
2013-10-27 03:35:00,33.6,33.1,30.05,East,93,2.0,5.0,98,0.00,,,0.00,Wunderground v.1.15,2013-10-27 10:35:00,
2013-10-27 03:40:00,33.6,33.1,30.05,East,93,2.0,3.0,98,0.00,,,0.00,Wunderground v.1.15,2013-10-27 10:40:00,
2013-10-27 03:45:00,33.6,33.1,30.04,East,93,2.0,6.0,98,0.00,,,0.00,Wunderground v.1.15,2013-10-27 10:45:00,
2013-10-27 03:50:00,33.7,33.2,30.04,East,93,0.0,3.0,98,0.00,,,0.00,Wunderground v.1.15,2013-10-27 10:50:00,
2013-10-27 03:55:00,33.7,33.2,30.04,East,93,2.0,5.0,98,0.00,,,0.00,Wunderground v.1.15,2013-10-27 10:55:00,
2013-10-27 04:00:00,33.7,33.2,30.04,NNE,28,3.0,5.0,98,0.00,,,0.00,Wunderground v.1.15,2013-10-27 11:00:00,
2013-10-27 04:05:00,33.7,33.2,30.04,North,11,4.0,6.0,98,0.00,,,0.00,Wunderground v.1.15,2013-10-27 11:05:00,
2013-10-27 04:10:00,33.7,33.2,30.04,North,5,4.0,4.0,98,0.00,,,0.00,Wunderground v.1.15,2013-10-27 11:10:00,
2013-10-27 04:15:00,33.6,33.1,30.03,North,5,3.0,5.0,98,0.00,,,0.00,Wunderground v.1.15,2013-10-27 11:15:00,
2013-10-27 04:20:00,33.6,33.1,30.03,NE,42,5.0,6.0,98,0.00,,,0.00,Wunderground v.1.15,2013-10-27 11:20:00,
2013-10-27 04:25:00,33.5,33.0,30.02,NE,51,6.0,7.0,98,0.00,,,0.00,Wunderground v.1.15,2013-10-27 11:25:00,
2013-10-27 04:30:00,33.4,32.9,30.01,NE,54,2.0,5.0,98,0.00,,,0.00,Wunderground v.1.15,2013-10-27 11:30:00,
2013-10-27 04:35:00,33.4,32.9,30.02,NE,54,3.0,5.0,98,0.00,,,0.00,Wunderground v.1.15,2013-10-27 11:35:00,
2013-10-27 04:40:00,33.4,32.9,30.01,NNE,26,4.0,5.0,98,0.00,,,0.00,Wunderground v.1.15,2013-10-27 11:40:00,
2013-10-27 04:45:00,33.4,32.9,30.01,NE,44,5.0,6.0,98,0.00,,,0.00,Wunderground v.1.15,2013-10-27 11:45:00,
2013-10-27 04:50:00,33.4,32.9,30.01,NE,40,3.0,5.0,98,0.00,,,0.00,Wunderground v.1.15,2013-10-27 11:50:00,
2013-10-27 04:55:00,33.4,32.9,30.01,NE,40,3.0,5.0,98,0.00,,,0.00,Wunderground v.1.15,2013-10-27 11:55:00,
2013-10-27 05:00:00,33.4,32.9,30.01,NE,51,3.0,3.0,98,0.00,,,0.00,Wunderground v.1.15,2013-10-27 12:00:00,
2013-10-27 05:05:00,33.3,32.8,30.01,NNE,19,5.0,7.0,98,0.00,,,0.00,Wunderground v.1.15,2013-10-27 12:05:00,
2013-10-27 05:10:00,33.3,32.8,30.02,NNW,335,4.0,5.0,98,0.00,,,0.00,Wunderground v.1.15,2013-10-27 12:10:00,
2013-10-27 05:15:00,33.3,32.8,30.03,NNW,336,5.0,7.0,98,0.00,,,0.00,Wunderground v.1.15,2013-10-27 12:15:00,
2013-10-27 05:20:00,33.3,32.8,30.03,NNW,344,3.0,5.0,98,0.00,,,0.00,Wunderground v.1.15,2013-10-27 12:20:00,
2013-10-27 05:25:00,33.3,32.8,30.03,NNW,344,0.0,5.0,98,0.00,,,0.00,Wunderground v.1.15,2013-10-27 12:25:00,
2013-10-27 05:30:00,33.4,32.9,30.02,NNW,344,3.0,4.0,98,0.00,,,0.00,Wunderground v.1.15,2013-10-27 12:30:00,
2013-10-27 05:31:00,33.4,32.9,30.02,NNW,344,1.0,4.0,98,0.00,,,0.00,Wunderground v.1.15,2013-10-27 12:31:00,
2013-10-27 05:36:00,33.7,33.4,30.01,NNE,22,4.0,4.0,99,0.00,,,0.00,Wunderground v.1.15,2013-10-27 12:36:00,
2013-10-27 05:41:00,34.1,33.6,30.01,NE,54,2.0,4.0,98,0.00,,,0.00,Wunderground v.1.15,2013-10-27 12:41:00,
2013-10-27 05:46:00,34.2,33.7,30.01,NE,55,4.0,5.0,98,0.00,,,0.00,Wunderground v.1.15,2013-10-27 12:46:00,
2013-10-27 05:51:00,34.3,34.0,30.00,NE,46,5.0,9.0,99,0.00,,,0.00,Wunderground v.1.15,2013-10-27 12:51:00,
2013-10-27 05:56:00,33.8,33.5,30.00,ENE,57,5.0,9.0,99,0.00,,,0.00,Wunderground v.1.15,2013-10-27 12:56:00,
2013-10-27 06:01:00,33.9,33.6,30.00,NE,42,5.0,9.0,99,0.00,,,0.00,Wunderground v.1.15,2013-10-27 13:01:00,
2013-10-27 06:06:00,33.9,33.6,30.00,NE,52,6.0,9.0,99,0.00,,,0.00,Wunderground v.1.15,2013-10-27 13:06:00,
2013-10-27 06:12:00,33.9,33.6,30.00,NE,42,6.0,8.0,99,0.00,,,0.00,Wunderground v.1.15,2013-10-27 13:12:00,
2013-10-27 06:17:00,33.8,33.5,30.00,NE,44,4.0,8.0,99,0.00,,,0.00,Wunderground v.1.15,2013-10-27 13:17:00,
2013-10-27 06:22:00,33.8,33.5,30.00,NE,34,0.0,6.0,99,0.00,,,0.00,Wunderground v.1.15,2013-10-27 13:22:00,
2013-10-27 06:27:00,33.9,33.6,29.99,ENE,57,4.0,6.0,99,0.00,,,0.00,Wunderground v.1.15,2013-10-27 13:27:00,
2013-10-27 06:32:00,34.2,33.9,29.98,ENE,65,3.0,5.0,99,0.00,,,0.00,Wunderground v.1.15,2013-10-27 13:32:00,
2013-10-27 06:37:00,34.4,34.1,29.97,ENE,71,2.0,7.0,99,0.00,,,0.00,Wunderground v.1.15,2013-10-27 13:37:00,
2013-10-27 06:42:00,34.4,34.1,29.97,East,85,2.0,4.0,99,0.00,,,0.00,Wunderground v.1.15,2013-10-27 13:42:00,
2013-10-27 06:47:00,34.6,34.3,29.98,SSE,160,4.0,5.0,99,0.00,,,0.01,Wunderground v.1.15,2013-10-27 13:47:00,
2013-10-27 06:52:00,35.0,34.7,29.97,SE,140,6.0,7.0,99,0.00,,,0.01,Wunderground v.1.15,2013-10-27 13:52:00,
2013-10-27 06:57:00,35.5,35.2,29.97,SE,141,6.0,8.0,99,0.00,,,0.01,Wunderground v.1.15,2013-10-27 13:57:00,
2013-10-27 07:02:00,35.7,35.4,29.97,SE,128,0.0,5.0,99,0.05,,,0.02,Wunderground v.1.15,2013-10-27 14:02:00,
2013-10-27 07:07:00,35.9,35.6,29.97,SE,128,1.0,5.0,99,0.05,,,0.02,Wunderground v.1.15,2013-10-27 14:07:00,
2013-10-27 07:13:00,36.3,36.0,29.97,ESE,103,4.0,8.0,99,0.04,,,0.02,Wunderground v.1.15,2013-10-27 14:13:00,
2013-10-27 07:18:00,36.8,36.5,29.97,East,93,5.0,8.0,99,0.00,,,0.02,Wunderground v.1.15,2013-10-27 14:18:00,
2013-10-27 07:23:00,36.8,36.5,29.96,ENE,63,1.0,4.0,99,0.00,,,0.02,Wunderground v.1.15,2013-10-27 14:23:00,
2013-10-27 07:28:00,37.0,36.7,29.96,SE,128,11.0,14.0,99,0.00,,,0.02,Wunderground v.1.15,2013-10-27 14:28:00,
2013-10-27 07:33:00,37.0,36.7,29.96,ENE,69,9.0,14.0,99,0.00,,,0.02,Wunderground v.1.15,2013-10-27 14:33:00,
2013-10-27 07:39:00,35.6,35.3,29.96,NW,316,5.0,14.0,99,0.00,,,0.02,Wunderground v.1.15,2013-10-27 14:39:00,
2013-10-27 07:44:00,34.6,34.3,29.97,SW,218,0.0,7.0,99,0.00,,,0.02,Wunderground v.1.15,2013-10-27 14:44:00,
2013-10-27 07:49:00,34.3,34.0,29.97,SW,218,0.0,7.0,99,0.00,,,0.02,Wunderground v.1.15,2013-10-27 14:49:00,
2013-10-27 07:54:00,34.2,33.7,29.97,NNE,16,4.0,6.0,98,0.00,,,0.02,Wunderground v.1.15,2013-10-27 14:54:00,
2013-10-27 07:59:00,34.3,34.0,29.96,NE,35,2.0,6.0,99,0.00,,,0.02,Wunderground v.1.15,2013-10-27 14:59:00,
2013-10-27 08:04:00,34.5,34.2,29.97,NNE,23,6.0,6.0,99,0.00,,,0.02,Wunderground v.1.15,2013-10-27 15:04:00,
2013-10-27 08:09:00,34.9,34.6,29.97,NNE,14,0.0,6.0,99,0.00,,,0.02,Wunderground v.1.15,2013-10-27 15:09:00,
2013-10-27 08:14:00,35.2,34.9,29.96,NE,34,3.0,5.0,99,0.00,,,0.02,Wunderground v.1.15,2013-10-27 15:14:00,
2013-10-27 08:19:00,35.6,35.3,29.95,NE,51,7.0,8.0,99,0.00,,,0.02,Wunderground v.1.15,2013-10-27 15:19:00,
2013-10-27 08:24:00,35.8,35.5,29.95,NNE,28,11.0,11.0,99,0.00,,,0.02,Wunderground v.1.15,2013-10-27 15:24:00,
2013-10-27 08:29:00,35.6,35.3,29.94,NE,38,5.0,11.0,99,0.00,,,0.02,Wunderground v.1.15,2013-10-27 15:29:00,
2013-10-27 08:34:00,35.6,35.3,29.94,NE,44,8.0,10.0,99,0.00,,,0.02,Wunderground v.1.15,2013-10-27 15:34:00,
2013-10-27 08:39:00,35.5,35.2,29.94,NE,41,5.0,10.0,99,0.00,,,0.02,Wunderground v.1.15,2013-10-27 15:39:00,
2013-10-27 08:44:00,35.5,35.2,29.95,NE,41,3.0,7.0,99,0.00,,,0.02,Wunderground v.1.15,2013-10-27 15:44:00,
2013-10-27 08:49:00,35.7,35.4,29.95,NE,41,1.0,7.0,99,0.00,,,0.02,Wunderground v.1.15,2013-10-27 15:49:00,
2013-10-27 08:54:00,35.8,35.5,29.95,NE,41,1.0,3.0,99,0.00,,,0.02,Wunderground v.1.15,2013-10-27 15:54:00,
2013-10-27 08:59:00,35.8,35.5,29.95,NE,41,0.0,4.0,99,0.00,,,0.02,Wunderground v.1.15,2013-10-27 15:59:00,
2013-10-27 09:04:00,35.9,35.6,29.95,NE,41,0.0,1.0,99,0.00,,,0.02,Wunderground v.1.15,2013-10-27 16:04:00,
2013-10-27 09:09:00,36.2,35.9,29.94,NE,41,4.0,5.0,99,0.00,,,0.02,Wunderground v.1.15,2013-10-27 16:09:00,
2013-10-27 09:14:00,36.6,36.3,29.94,NNE,32,2.0,5.0,99,0.00,,,0.02,Wunderground v.1.15,2013-10-27 16:14:00,
2013-10-27 09:19:00,36.9,36.6,29.94,NNE,16,5.0,5.0,99,0.00,,,0.02,Wunderground v.1.15,2013-10-27 16:19:00,
2013-10-27 15:04:00,44.7,44.4,29.92,NNE,19,7.0,7.0,99,0.00,,,0.02,Wunderground v.1.15,2013-10-27 22:04:00,
2013-10-27 15:09:00,44.8,44.3,29.92,NNE,18,6.0,9.0,98,0.00,,,0.02,Wunderground v.1.15,2013-10-27 22:09:00,
2013-10-27 15:14:00,44.9,44.4,29.92,North,5,6.0,10.0,98,0.00,,,0.02,Wunderground v.1.15,2013-10-27 22:14:00,
2013-10-27 15:20:00,45.1,44.3,29.92,North,9,11.0,17.0,97,0.00,,,0.02,Wunderground v.1.15,2013-10-27 22:20:00,
2013-10-27 15:26:00,45.4,44.3,29.92,North,355,13.0,17.0,96,0.00,,,0.02,Wunderground v.1.15,2013-10-27 22:26:00,
2013-10-27 15:32:00,45.5,44.2,29.92,NNE,20,14.0,14.0,95,0.00,,,0.02,Wunderground v.1.15,2013-10-27 22:32:00,
2013-10-27 15:37:00,45.4,43.8,29.92,North,350,7.0,17.0,94,0.00,,,0.02,Wunderground v.1.15,2013-10-27 22:37:00,
2013-10-27 15:42:00,45.4,43.8,29.92,North,355,8.0,19.0,94,0.00,,,0.02,Wunderground v.1.15,2013-10-27 22:42:00,
2013-10-27 15:47:00,45.4,43.5,29.92,North,360,15.0,21.0,93,0.00,,,0.02,Wunderground v.1.15,2013-10-27 22:47:00,
2013-10-27 15:52:00,45.5,43.3,29.92,North,360,15.0,21.0,92,0.00,,,0.02,Wunderground v.1.15,2013-10-27 22:52:00,
2013-10-27 15:57:00,45.6,43.4,29.92,NNE,21,11.0,21.0,92,0.00,,,0.02,Wunderground v.1.15,2013-10-27 22:57:00,
2013-10-27 16:02:00,45.7,43.2,29.92,NNE,14,7.0,15.0,91,0.00,,,0.02,Wunderground v.1.15,2013-10-27 23:02:00,
2013-10-27 16:07:00,45.9,43.1,29.92,North,5,10.0,18.0,90,0.00,,,0.02,Wunderground v.1.15,2013-10-27 23:07:00,
2013-10-27 16:12:00,46.0,43.2,29.92,NNE,19,10.0,14.0,90,0.00,,,0.02,Wunderground v.1.15,2013-10-27 23:12:00,
2013-10-27 16:17:00,46.2,43.1,29.92,NW,318,12.0,16.0,89,0.00,,,0.02,Wunderground v.1.15,2013-10-27 23:17:00,
2013-10-27 16:22:00,46.2,42.8,29.92,NNE,17,12.0,18.0,88,0.00,,,0.02,Wunderground v.1.15,2013-10-27 23:22:00,
2013-10-27 16:27:00,46.3,42.6,29.92,NNE,15,7.0,21.0,87,0.00,,,0.02,Wunderground v.1.15,2013-10-27 23:27:00,
2013-10-27 16:32:00,46.4,42.7,29.92,North,5,13.0,24.0,87,0.00,,,0.02,Wunderground v.1.15,2013-10-27 23:32:00,
2013-10-27 16:37:00,46.6,42.6,29.92,NNE,12,16.0,24.0,86,0.00,,,0.02,Wunderground v.1.15,2013-10-27 23:37:00,
2013-10-27 16:42:00,46.4,42.4,29.93,NNE,17,9.0,23.0,86,0.00,,,0.02,Wunderground v.1.15,2013-10-27 23:42:00,
2013-10-27 16:47:00,46.5,42.2,29.93,NNW,348,18.0,25.0,85,0.00,,,0.02,Wunderground v.1.15,2013-10-27 23:47:00,
2013-10-27 16:53:00,46.6,42.0,29.93,NNE,21,15.0,21.0,84,0.00,,,0.02,Wunderground v.1.15,2013-10-27 23:53:00,
2013-10-27 16:58:00,46.8,41.9,29.93,NNE,19,22.0,24.0,83,0.00,,,0.02,Wunderground v.1.15,2013-10-27 23:58:00,
2013-10-27 17:03:00,46.8,41.9,29.93,ENE,63,16.0,20.0,83,0.00,,,0.02,Wunderground v.1.15,2013-10-28 00:03:00,
2013-10-27 17:09:00,46.7,41.5,29.93,NNE,16,8.0,20.0,82,0.00,,,0.02,Wunderground v.1.15,2013-10-28 00:09:00,
2013-10-27 17:14:00,46.7,41.2,29.93,North,355,19.0,24.0,81,0.00,,,0.02,Wunderground v.1.15,2013-10-28 00:14:00,
2013-10-27 17:19:00,46.8,41.0,29.94,NE,38,18.0,24.0,80,0.00,,,0.02,Wunderground v.1.15,2013-10-28 00:19:00,
2013-10-27 17:24:00,46.7,40.5,29.94,NNE,19,13.0,22.0,79,0.00,,,0.02,Wunderground v.1.15,2013-10-28 00:24:00,
2013-10-27 17:29:00,46.8,40.6,29.94,NE,55,11.0,22.0,79,0.00,,,0.02,Wunderground v.1.15,2013-10-28 00:29:00,
2013-10-27 17:34:00,46.7,39.9,29.94,North,9,11.0,21.0,77,0.00,,,0.02,Wunderground v.1.15,2013-10-28 00:34:00,
2013-10-27 17:39:00,46.6,39.4,29.94,NNE,17,15.0,21.0,76,0.00,,,0.02,Wunderground v.1.15,2013-10-28 00:39:00,
2013-10-27 17:44:00,46.6,38.8,29.94,North,11,22.0,26.0,74,0.00,,,0.02,Wunderground v.1.15,2013-10-28 00:44:00,
2013-10-27 17:49:00,46.7,38.1,29.95,NNE,15,21.0,26.0,72,0.00,,,0.02,Wunderground v.1.15,2013-10-28 00:49:00,
2013-10-27 17:54:00,46.7,37.4,29.95,NNE,26,11.0,24.0,70,0.00,,,0.02,Wunderground v.1.15,2013-10-28 00:54:00,
2013-10-27 17:59:00,46.6,36.6,29.95,NE,42,7.0,24.0,68,0.00,,,0.02,Wunderground v.1.15,2013-10-28 00:59:00,
2013-10-27 18:04:00,46.8,36.4,29.95,NE,48,8.0,27.0,67,0.00,,,0.02,Wunderground v.1.15,2013-10-28 01:04:00,
2013-10-27 18:09:00,46.7,35.9,29.96,NE,53,7.0,27.0,66,0.00,,,0.02,Wunderground v.1.15,2013-10-28 01:09:00,
2013-10-27 18:14:00,46.6,35.1,29.96,NNE,31,14.0,26.0,64,0.00,,,0.02,Wunderground v.1.15,2013-10-28 01:14:00,
2013-10-27 18:19:00,46.5,34.6,29.96,NNE,20,21.0,27.0,63,0.00,,,0.02,Wunderground v.1.15,2013-10-28 01:19:00,
2013-10-27 18:24:00,46.3,34.0,29.97,NE,44,18.0,24.0,62,0.00,,,0.02,Wunderground v.1.15,2013-10-28 01:24:00,
2013-10-27 18:29:00,46.2,33.5,29.98,NNE,17,16.0,28.0,61,0.00,,,0.02,Wunderground v.1.15,2013-10-28 01:29:00,
2013-10-27 18:34:00,46.0,32.9,29.98,North,10,20.0,24.0,60,0.00,,,0.02,Wunderground v.1.15,2013-10-28 01:34:00,
2013-10-27 18:39:00,45.9,31.9,29.98,NNW,342,15.0,27.0,58,0.00,,,0.02,Wunderground v.1.15,2013-10-28 01:39:00,
2013-10-27 18:44:00,45.9,31.5,29.99,North,5,22.0,28.0,57,0.00,,,0.02,Wunderground v.1.15,2013-10-28 01:44:00,
2013-10-27 18:49:00,45.9,31.1,29.99,North,355,17.0,34.0,56,0.00,,,0.02,Wunderground v.1.15,2013-10-28 01:49:00,
2013-10-27 18:54:00,45.7,30.9,29.99,ENE,59,14.0,30.0,56,0.00,,,0.02,Wunderground v.1.15,2013-10-28 01:54:00,
2013-10-27 18:59:00,45.5,30.7,29.99,NNE,17,18.0,35.0,56,0.00,,,0.02,Wunderground v.1.15,2013-10-28 01:59:00,
2013-10-27 19:04:00,45.3,30.1,30.00,NNE,30,14.0,24.0,55,0.00,,,0.02,Wunderground v.1.15,2013-10-28 02:04:00,
2013-10-27 19:09:00,45.3,29.6,30.00,North,360,19.0,34.0,54,0.00,,,0.03,Wunderground v.1.15,2013-10-28 02:09:00,
2013-10-27 19:14:00,45.2,29.1,30.00,NNE,30,19.0,26.0,53,0.00,,,0.03,Wunderground v.1.15,2013-10-28 02:14:00,
2013-10-27 19:19:00,45.0,29.3,30.00,North,5,13.0,26.0,54,0.00,,,0.03,Wunderground v.1.15,2013-10-28 02:19:00,
2013-10-27 19:24:00,45.1,29.0,30.00,North,5,16.0,31.0,53,0.00,,,0.03,Wunderground v.1.15,2013-10-28 02:24:00,
2013-10-27 19:29:00,45.0,28.4,30.01,NNE,32,18.0,31.0,52,0.00,,,0.03,Wunderground v.1.15,2013-10-28 02:29:00,
2013-10-27 19:34:00,45.0,28.4,30.01,NE,42,22.0,32.0,52,0.00,,,0.03,Wunderground v.1.15,2013-10-28 02:34:00,
2013-10-27 19:39:00,45.1,27.6,30.01,NE,43,30.0,34.0,50,0.00,,,0.03,Wunderground v.1.15,2013-10-28 02:39:00,
2013-10-27 19:44:00,45.0,27.9,30.02,NE,42,11.0,30.0,51,0.00,,,0.03,Wunderground v.1.15,2013-10-28 02:44:00,
2013-10-27 19:49:00,44.9,28.3,30.01,NE,46,10.0,30.0,52,0.00,,,0.03,Wunderground v.1.15,2013-10-28 02:49:00,
2013-10-27 19:55:00,44.8,27.3,30.01,NNE,24,24.0,34.0,50,0.00,,,0.03,Wunderground v.1.15,2013-10-28 02:55:00,
2013-10-27 20:00:00,44.8,27.3,30.02,NE,34,14.0,23.0,50,0.00,,,0.03,Wunderground v.1.15,2013-10-28 03:00:00,
2013-10-27 20:05:00,44.7,27.2,30.02,NNE,31,17.0,25.0,50,0.00,,,0.03,Wunderground v.1.15,2013-10-28 03:05:00,
2013-10-27 20:10:00,44.6,27.1,30.02,NNE,18,21.0,21.0,50,0.00,,,0.03,Wunderground v.1.15,2013-10-28 03:10:00,
2013-10-27 20:15:00,44.5,26.5,30.02,NE,40,24.0,32.0,49,0.00,,,0.03,Wunderground v.1.15,2013-10-28 03:15:00,
2013-10-27 20:20:00,44.5,26.5,30.02,NE,38,22.0,32.0,49,0.00,,,0.03,Wunderground v.1.15,2013-10-28 03:20:00,
2013-10-27 20:25:00,44.3,26.3,30.02,NE,42,18.0,37.0,49,0.00,,,0.03,Wunderground v.1.15,2013-10-28 03:25:00,
2013-10-27 20:30:00,44.1,26.1,30.03,NE,41,16.0,20.0,49,0.00,,,0.03,Wunderground v.1.15,2013-10-28 03:30:00,
2013-10-27 20:35:00,44.1,25.6,30.03,North,360,14.0,36.0,48,0.00,,,0.03,Wunderground v.1.15,2013-10-28 03:35:00,
2013-10-27 20:40:00,43.9,25.5,30.03,NE,40,15.0,30.0,48,0.00,,,0.03,Wunderground v.1.15,2013-10-28 03:40:00,
2013-10-27 20:45:00,43.8,25.4,30.04,NNE,32,30.0,34.0,48,0.00,,,0.03,Wunderground v.1.15,2013-10-28 03:45:00,
2013-10-27 20:50:00,43.8,25.4,30.04,NE,34,15.0,25.0,48,0.00,,,0.03,Wunderground v.1.15,2013-10-28 03:50:00,
2013-10-27 20:55:00,43.6,25.7,30.04,North,9,10.0,29.0,49,0.00,,,0.03,Wunderground v.1.15,2013-10-28 03:55:00,
2013-10-27 21:00:00,43.5,25.6,30.04,NE,36,19.0,25.0,49,0.00,,,0.03,Wunderground v.1.15,2013-10-28 04:00:00,
2013-10-27 21:01:00,43.4,25.5,30.04,NE,35,17.0,25.0,49,0.00,,,0.03,Wunderground v.1.15,2013-10-28 04:01:00,
2013-10-27 21:06:00,43.4,25.5,30.05,ENE,57,22.0,34.0,49,0.00,,,0.03,Wunderground v.1.15,2013-10-28 04:06:00,
2013-10-27 21:11:00,43.2,25.8,30.05,NE,36,21.0,34.0,50,0.00,,,0.04,Wunderground v.1.15,2013-10-28 04:11:00,
2013-10-27 21:16:00,43.2,25.8,30.05,NNE,25,26.0,37.0,50,0.00,,,0.04,Wunderground v.1.15,2013-10-28 04:16:00,
2013-10-27 21:21:00,42.9,26.0,30.06,NNE,26,17.0,26.0,51,0.00,,,0.04,Wunderground v.1.15,2013-10-28 04:21:00,
2013-10-27 21:26:00,42.8,25.9,30.06,NNE,18,17.0,31.0,51,0.00,,,0.04,Wunderground v.1.15,2013-10-28 04:26:00,
2013-10-27 21:31:00,42.6,26.2,30.07,NE,42,14.0,31.0,52,0.00,,,0.04,Wunderground v.1.15,2013-10-28 04:31:00,
2013-10-27 21:36:00,42.3,26.4,30.07,NE,51,21.0,31.0,53,0.00,,,0.04,Wunderground v.1.15,2013-10-28 04:36:00,
2013-10-27 21:41:00,42.1,27.1,30.07,ENE,59,18.0,31.0,55,0.00,,,0.04,Wunderground v.1.15,2013-10-28 04:41:00,
2013-10-27 21:46:00,41.8,26.8,30.08,NNE,33,12.0,31.0,55,0.00,,,0.04,Wunderground v.1.15,2013-10-28 04:46:00,
2013-10-27 21:52:00,41.6,27.1,30.08,NE,39,23.0,23.0,56,0.00,,,0.04,Wunderground v.1.15,2013-10-28 04:52:00,
2013-10-27 21:57:00,41.3,27.6,30.08,NE,53,15.0,29.0,58,0.00,,,0.04,Wunderground v.1.15,2013-10-28 04:57:00,
2013-10-27 22:02:00,41.0,27.8,30.08,NE,35,15.0,26.0,59,0.00,,,0.04,Wunderground v.1.15,2013-10-28 05:02:00,
2013-10-27 22:07:00,40.6,28.2,30.09,NE,44,12.0,26.0,61,0.00,,,0.04,Wunderground v.1.15,2013-10-28 05:07:00,
2013-10-27 22:12:00,40.1,28.5,30.09,NE,40,14.0,21.0,63,0.00,,,0.04,Wunderground v.1.15,2013-10-28 05:12:00,
2013-10-27 22:17:00,39.8,29.0,30.09,NE,40,14.0,24.0,65,0.00,,,0.04,Wunderground v.1.15,2013-10-28 05:17:00,
2013-10-27 22:22:00,39.4,29.0,30.09,NE,41,9.0,18.0,66,0.00,,,0.04,Wunderground v.1.15,2013-10-28 05:22:00,
2013-10-27 22:27:00,38.9,29.6,30.09,NNE,15,13.0,19.0,69,0.00,,,0.04,Wunderground v.1.15,2013-10-28 05:27:00,
2013-10-27 22:32:00,38.4,29.5,30.10,North,5,21.0,27.0,70,0.00,,,0.04,Wunderground v.1.15,2013-10-28 05:32:00,
2013-10-27 22:37:00,38.0,29.8,30.10,NE,51,15.0,27.0,72,0.00,,,0.04,Wunderground v.1.15,2013-10-28 05:37:00,
2013-10-27 22:42:00,37.6,30.1,30.10,NNE,24,16.0,29.0,74,0.00,,,0.04,Wunderground v.1.15,2013-10-28 05:42:00,
2013-10-27 22:47:00,37.1,30.2,30.10,North,5,16.0,29.0,76,0.00,,,0.04,Wunderground v.1.15,2013-10-28 05:47:00,
2013-10-27 22:52:00,36.7,30.2,30.10,NE,43,8.0,29.0,77,0.00,,,0.04,Wunderground v.1.15,2013-10-28 05:52:00,
2013-10-27 22:57:00,36.3,30.4,30.10,NNE,27,13.0,29.0,79,0.00,,,0.04,Wunderground v.1.15,2013-10-28 05:57:00,
2013-10-27 23:02:00,36.1,30.5,30.10,NE,36,14.0,24.0,80,0.00,,,0.04,Wunderground v.1.15,2013-10-28 06:02:00,
2013-10-27 23:07:00,35.9,30.6,30.10,North,11,17.0,24.0,81,0.00,,,0.04,Wunderground v.1.15,2013-10-28 06:07:00,
2013-10-27 23:12:00,35.6,30.6,30.10,NE,41,19.0,26.0,82,0.00,,,0.04,Wunderground v.1.15,2013-10-28 06:12:00,
2013-10-27 23:17:00,35.5,30.8,30.10,NE,36,14.0,27.0,83,0.00,,,0.04,Wunderground v.1.15,2013-10-28 06:17:00,
2013-10-27 23:22:00,35.3,30.9,30.10,NE,51,20.0,28.0,84,0.00,,,0.04,Wunderground v.1.15,2013-10-28 06:22:00,
2013-10-27 23:27:00,35.2,30.9,30.10,NNW,348,13.0,29.0,84,0.00,,,0.04,Wunderground v.1.15,2013-10-28 06:27:00,
2013-10-27 23:32:00,35.1,30.8,30.10,NNE,18,15.0,22.0,84,0.00,,,0.04,Wunderground v.1.15,2013-10-28 06:32:00,
2013-10-27 23:37:00,35.1,30.8,30.10,NNE,26,16.0,22.0,84,0.00,,,0.04,Wunderground v.1.15,2013-10-28 06:37:00,
2013-10-27 23:43:00,35.2,30.6,30.10,NE,36,27.0,31.0,83,0.00,,,0.04,Wunderground v.1.15,2013-10-28 06:43:00,
2013-10-27 23:48:00,35.2,30.6,30.10,NE,46,19.0,31.0,83,0.00,,,0.04,Wunderground v.1.15,2013-10-28 06:48:00,
2013-10-27 23:54:00,35.2,30.6,30.10,NNE,24,12.0,28.0,83,0.00,,,0.04,Wunderground v.1.15,2013-10-28 06:54:00,
2013-10-27 23:59:00,35.1,30.5,30.11,NNE,17,13.0,28.0,83,0.00,,,0.04,Wunderground v.1.15,2013-10-28 06:59:00,